FW4758 Weather Reports


Display with metric or nautical units.
time (UTC)temp
F
wind
direction
speed
MPH
gust
MPH
rain 1hr
in
rain 24hr
in
rain mn
in
humidity
%
barometer
mb
20260503031523 63 180 2.0 4.0 0.00 0.01 0.01 59 1019.1
20260503030043 63 181 2.0 3.0 0.00 0.01 0.01 59 1019.0
20260503024530 64 166 2.0 4.0 0.00 0.01 0.01 58 1018.8
20260503023020 64 172 2.0 4.0 0.00 0.01 0.01 57 1018.8
20260503021525 65 182 2.0 4.0 0.00 0.01 0.01 56 1018.5
20260503020021 65 178 1.0 3.0 0.00 0.01 0.01 55 1018.5
20260503014520 66 208 1.0 2.0 0.00 0.01 0.01 54 1018.4
20260503013019 67 208 0.0 0.0 0.00 0.01 0.01 54 1018.3
20260503011518 68 208 0.0 2.0 0.00 0.01 0.01 53 1018.3
20260503010020 69 208 0.0 0.0 0.00 0.01 0.01 51 1018.3
20260503004520 71 208 1.0 3.0 0.00 0.01 0.01 50 1018.3
20260503003017 72 208 0.0 1.0 0.00 0.01 0.01 45 1018.3
20260503001517 72 208 0.0 3.0 0.00 0.01 0.01 47 1018.3
20260503000028 73 215 2.0 4.0 0.00 0.01 0.01 47 1018.2
20260502234515 73 217 2.0 7.0 0.00 0.01 0.01 43 1018.3
20260502233014 74 232 2.0 4.0 0.00 0.01 0.01 44 1018.3
20260502231513 74 16 0.0 1.0 0.00 0.01 0.01 44 1018.5
20260502230013 74 265 1.0 6.0 0.00 0.01 0.01 42 1018.5
20260502224512 73 309 2.0 4.0 0.00 0.01 0.01 41 1018.4
20260502223014 72 318 2.0 6.0 0.00 0.01 0.01 39 1018.6
20260502221509 74 289 2.0 6.0 0.00 0.01 0.01 42 1018.6
20260502220011 74 245 4.0 8.0 0.00 0.01 0.01 42 1018.7
20260502214510 73 306 0.0 5.0 0.00 0.01 0.01 43 1018.8
20260502213019 74 263 3.0 8.0 0.00 0.01 0.01 42 1019.0
20260502211506 73 284 0.0 6.0 0.00 0.01 0.01 43 1019.2
20260502210007 73 298 5.0 7.0 0.00 0.01 0.01 42 1019.5
20260502204505 74 325 2.0 5.0 0.00 0.01 0.01 43 1019.6
20260502203003 73 57 4.0 12.0 0.00 0.01 0.01 44 1019.8
20260502201502 73 238 4.0 8.0 0.00 0.01 0.01 46 1019.9
20260502200002 73 292 3.0 7.0 0.00 0.01 0.01 45 1020.0
20260502194501 73 306 2.0 11.0 0.00 0.01 0.01 46 1020.3
20260502193100 73 16 4.0 8.0 0.00 0.01 0.01 40 1020.3
20260502191601 73 270 4.0 8.0 0.00 0.01 0.01 45 1020.4
20260502190058 72 19 3.0 9.0 0.00 0.01 0.01 41 1020.5
20260502184601 72 47 6.0 10.0 0.00 0.01 0.01 43 1020.7
20260502183053 71 350 6.0 12.0 0.00 0.01 0.01 43 1020.9
20260502181608 71 23 5.0 10.0 0.00 0.01 0.01 43 1021.2
20260502163036 67 355 3.0 7.0 0.00 0.01 0.01 64 1022.2
20260502161534 66 292 3.0 6.0 0.00 0.01 0.01 61 1022.1
20260502151523 63 257 4.0 9.0 0.00 0.01 0.01 72 1022.0
20260502123050 49 297 2.0 4.0 0.01 0.01 0.01 85 1020.8
20260502121549 47 271 1.0 3.0 0.01 0.01 0.01 86 1020.7
20260502114550 46 244 2.0 4.0 0.00 0.00 0.00 86 1020.1
20260502113042 46 229 2.0 4.0 0.00 0.00 0.00 86 1019.8
20260502111539 46 245 2.0 3.0 0.00 0.00 0.00 86 1019.4
20260502110042 47 254 1.0 3.0 0.00 0.00 0.00 86 1019.2
20260502104539 47 261 1.0 3.0 0.00 0.00 0.00 86 1019.1
20260502103037 47 264 1.0 3.0 0.00 0.00 0.00 86 1019.0
20260502101543 46 273 0.0 2.0 0.00 0.00 0.00 86 1018.9
20260502091528 47 265 0.0 0.0 0.00 0.01 0.00 86 1018.7
20260502071517 50 265 0.0 0.0 0.00 0.01 0.00 86 1018.8
20260502070015 50 265 0.0 0.0 0.00 0.01 0.00 86 1018.9
20260502064531 50 265 0.0 0.0 0.00 0.01 0.00 86 1018.7
20260502063014 51 265 0.0 0.0 0.00 0.01 0.00 85 1018.8
20260502061510 51 265 0.0 0.0 0.00 0.01 0.00 85 1018.8
20260502060008 52 265 0.0 0.0 0.00 0.01 0.00 85 1018.8
20260502054507 52 265 0.0 0.0 0.00 0.01 0.00 84 1019.0
20260502053005 52 265 0.0 2.0 0.00 0.01 0.00 83 1019.1
20260502051504 53 88 1.0 2.0 0.00 0.01 0.00 82 1018.9
20260502050101 53 88 0.0 0.0 0.00 0.01 0.00 81 1018.7
20260502044557 54 88 0.0 0.0 0.00 0.01 0.01 78 1018.7
20260502043056 55 88 0.0 0.0 0.00 0.01 0.01 78 1018.7
20260502041554 56 88 1.0 3.0 0.00 0.01 0.01 78 1018.6
20260502040105 55 98 1.0 2.0 0.00 0.01 0.01 78 1018.6
20260502034555 55 98 0.0 0.0 0.00 0.01 0.01 79 1018.6
20260502033051 55 98 0.0 2.0 0.00 0.01 0.01 77 1018.5